Back to catalog

STARLINK-38109

AliveCommunicationsVLEO
NORAD 100025·PAYLOAD·🇺🇸 United States

Launched Jul 14, 2026 from Vandenberg Space Force Base

Loading…

Next Passes (next 24 hours)

TLE

AgingSource: Space-Track

Epoch: Sep 13, 2026, 07:23 UTC

1 A0025U 26160AA  26256.30767123 -.00623728  00000-0 -41273-2 0  9991
2 A0025  70.0004 215.0978 0002817 291.6798  68.4101 15.76948743 10861

Track STARLINK-38109 in real time with AllMySat

Download on the App Store